Location: Long Barn
(38.0930°N, 120.1344°W)
Time: 22:53:40
(UTC+00:00)

IRIDIUM 106 - Pass Details

Date: 05 August 2024
Orbit: 776 x 779 km, 86.4° (Epoch: 07 September)

Event Time Altitude Azimuth Distance (km) Brightness Sun altitude
Rises 12:07:05 0° 185° (S) 3,246 7.2 -11.4°
Reaches altitude 10° 12:09:25 10° 188° (S) 2,323 6.4 -11.0°
Maximum altitude 12:14:37 74° 273° (W) 813 4.3 -10.1°
Drops below altitude 10° 12:19:51 10° 358° (N) 2,339 7.2 -9.2°
Sets 12:22:13 0° 1° (N) 3,270 8.0 -8.8°
